STARLINK-3095, 49160

Orbit data source: Space-Track

STARLINK-3095, 49160 is a payload satellite owned by SpaceX/Seattle (US) in LEO that was launched on Tue, 14 Sep 2021 UTC via an FALCON 9 launch vehicle from the Air Force Western Test Range (AFWTR). Payload-class satellites include a variety of spacecraft equipped with specific instruments for various scientific and technological missions. These include communications satellites like Starlink; space stations such as the ISS; scientific satellites like the Hubble; Earth observation satellites from companies like Planet Labs, Umbra, and HawkEye 360; GPS; miniature CubeSats for education and research; and military/defense satellites.

Loading next visibility...
Identifier
49160, 2021-082AG
Orbit
LEO
Last TLE update
11 hours ago
Origin
Manufacturer
SpaceX/Seattle
Mission
Operational Commercial Communications
Bus & Motor
STARLINK, Unknown motor
Mass
297 kg wet, ~275 kg dry
Launch date (UTC)
2021-09-14 (4 years ago)
Launch vehicle
FALCON 9
Launch site
Air Force Western Test Range (AFWTR)
Object type
Payload
Rocket body
Debris
Shape & HBR
Box + 1 Pan, 8.86 m
Radar Cross Section
13.562 m², Large (>1 m²)

Expand to show TLE details & history

TLE from 11 hours ago
0 STARLINK-3095
1 49160U 21082AG  25128.91714168  .00000177  00000-0  22660-4 0  9993
2 49160  69.9989 342.8791 0002983 269.6057  90.4760 14.98330513201403
Epoch: 2025-05-08T22:00Z
Definitive object data (Epoch: 2025-05-08T22:00:41.041Z)
Latitude
-0.00003°
Longitude
145.72732°
Altitude
574.496 km
Speed
7.574 km/s
True Right ascension
22h 51m 30s
True Declination
0° 00' 00"
Sunlit
Object was in daylight at TLE epoch
Visualization TLE readout
Latitude
35.21828°
Longitude
159.33749°
Altitude
577.514 km
Speed
7.575 km/s
Apparent Right ascension
02h 23m 21s
Apparent Declination
0° 35' 42"
Sunlit
Object is in daylight
Visualization observer readout
Local Sidereal Time
17:33:00
Azimuth
59.93° ENE
Elevation
-31.713°
Doppler factor
1
Orbital elements
Apogee altitude
572.075 km
Perigee altitude
567.93 km
Semi-major axis
6,948.14 km
Eccentricity
0.0002983
Inclination
69.9989°
RAAN
342.8791°
Arg. of periapsis
269.6057°
True anomaly
90.51018°
Mean anomaly
90.476°
Eccentric anomaly
90.49309°
Mean motion
3.74749 °/min
BSTAR
0.00002266
Orbital period
96.06 mins
Loading maneuver chart data...
Loading SW <> Apogee altitude chart data...
Loading historical data...
Loading historical data...
Loading historical data...
Loading historical data...
Loading historical data...
Loading historical data...
Loading historical data...

STARLINK-3095 Visibility forecast

Observer location: undefined°, undefined°

Span
Click to sort rows by Start time (UTC) header in descending order
Start Az.
Max El. time (UTC)
Max El. Az.
Max El.
End time (UTC)
End Az.
8 mins2025-05-09 15:45:40.804Z207.473° SW2025-05-09 15:49:40.804Z280.625° WNW44.44°2025-05-09 15:53:40.804Z21.775° NNE
5 mins2025-05-10 00:11:40.804Z18.504° NNE2025-05-10 00:13:40.804Z53.349° ENE18.842°2025-05-10 00:16:40.804Z101.388° ESE
6 mins2025-05-10 01:49:40.804Z307.709° NW2025-05-10 01:51:40.804Z267.949° W29.388°2025-05-10 01:55:40.804Z187.451° SSW
|